Home   Weather   Orléans   Past weeks
Flag for France

Past Weather in Orléans, Centre-Val de Loire, France — Yesterday and Last 2 Weeks

Now
46 °F

Clear.


Feels Like: 45 °F
Forecast: 72 / 51 °F
Wind: 3 mph from East

Location: Orleans Airport

Current Time: May 23, 2019 at 5:04:04 am

Latest Report: May 23, 2019 at 4:00 am


Visibility: 10 mi

Pressure: 30.09 "Hg

Humidity: 100%

Dew Point: 46 °F

Location of OrléansLocation

Past Weather in Orléans — Graph

°F

Orléans Temperature Yesterday

Maximum temperature yesterday: 70 °F (at 4:00 pm)
Minimum temperature yesterday: 46 °F (at 5:30 am)
Average temperature yesterday: 59 °F

High & Low Weather Summary for the Past Weeks

 TemperatureHumidityPressure
High70 °F (May 22, 4:00 pm)100% (May 9, 2:00 am)30.57 "Hg (May 9, 2:00 am)
Low37 °F (May 15, 5:00 am)32% (May 14, 6:30 pm)29.27 "Hg (May 9, 4:00 am)
Average54 °F76%29.97 "Hg
* Reported May 8 3:00 am — May 23 3:30 am, Orléans. Weather by CustomWeather, © 2019

Note: Actual official high and low records may vary slightly from our data, if they occured in-between our weather recording intervals... More about our weather records

Advertising

Orléans Weather History for the Previous 24 Hours

Scroll right to see more
 ConditionsComfort  
Time TempWeatherWind HumidityBarometerVisibility
3:30 am
Thu, May 23
48 °FClear.1 mph94%30.09 "Hg10 mi
3:00 am48 °FClear.2 mph94%30.09 "Hg10 mi
2:30 am48 °FClear.2 mph94%30.09 "Hg10 mi
2:00 am48 °FClear.2 mph94%30.09 "Hg10 mi
1:30 am50 °FClear.No wind88%30.09 "Hg10 mi
1:00 am50 °FClear.2 mph88%30.09 "Hg10 mi
12:30 am54 °FClear.2 mph77%30.09 "Hg10 mi
12:00 am54 °FClear.3 mph77%30.12 "Hg10 mi
11:30 pm
Wed, May 22
54 °FClear.3 mph82%30.12 "Hg10 mi
11:00 pm55 °FClear.1 mph77%30.12 "Hg10 mi
10:30 pm59 °FClear.3 mph68%30.12 "Hg10 mi
10:00 pm59 °FClear.3 mph63%30.12 "Hg10 mi
9:30 pm63 °FSunny.6 mph56%30.09 "Hg10 mi
9:00 pm63 °FSunny.3 mph64%30.09 "Hg10 mi
8:30 pm64 °FSunny.5 mph52%30.09 "Hg10 mi
8:00 pm66 °FSunny.5 mph49%30.09 "Hg10 mi
7:30 pm68 °FSunny.6 mph46%30.09 "Hg10 mi
7:00 pm68 °FPassing clouds.5 mph46%30.09 "HgN/A
6:30 pm68 °FPassing clouds.5 mph46%30.09 "HgN/A
6:00 pm68 °FPassing clouds.7 mph43%30.09 "HgN/A
5:30 pm68 °FPassing clouds.5 mph46%30.12 "HgN/A
5:00 pm68 °FSunny.2 mph43%30.12 "Hg10 mi
4:30 pm68 °FPassing clouds.8 mph49%30.12 "HgN/A
4:00 pm70 °FSunny.5 mph43%30.12 "Hg10 mi
3:30 pm68 °FPassing clouds.5 mph43%30.12 "HgN/A
3:00 pm68 °FPassing clouds.6 mph43%30.12 "HgN/A
2:30 pm68 °FPassing clouds.3 mph49%30.12 "HgN/A
2:00 pm68 °FPassing clouds.6 mph46%30.12 "HgN/A
1:30 pm68 °FPassing clouds.9 mph46%30.15 "HgN/A
1:00 pm64 °FPassing clouds.3 mph49%30.15 "HgN/A
12:30 pm66 °FScattered clouds.5 mph49%30.12 "HgN/A
12:00 pm68 °FPassing clouds.6 mph46%30.12 "HgN/A
11:30 am66 °FSunny.3 mph52%30.15 "Hg10 mi
11:00 am64 °FPassing clouds.5 mph56%30.12 "HgN/A
10:30 am63 °FPassing clouds.5 mph64%30.12 "HgN/A
10:00 am61 °FPassing clouds.3 mph68%30.12 "HgN/A
9:30 am57 °FSunny.5 mph82%30.12 "Hg10 mi
9:00 am55 °FSunny.3 mph82%30.12 "Hg10 mi
8:30 am54 °FSunny.5 mph88%30.12 "Hg10 mi
8:00 am50 °FSunny.5 mph94%30.12 "Hg10 mi
7:30 am48 °FClear.3 mph94%30.12 "Hg6 mi
7:00 am48 °FClear.3 mph94%30.12 "Hg6 mi
6:30 am46 °FClear.5 mph93%30.12 "Hg5 mi
6:00 am46 °FClear.3 mph93%30.12 "Hg10 mi
5:30 am46 °FClear.3 mph93%30.12 "Hg6 mi
5:00 am48 °FClear.3 mph94%30.12 "Hg6 mi
Weather by CustomWeather, © 2019

See weather overview